1484827201.14,52786,4.13,74010.5,-4.15,-40.15,-40.47,0,*59
1484827202.42,52787,4.13,74010.0,-4.15,-40.21,-40.79,0,*52
1484827203.68,52788,4.13,74006.3,-4.15,-41.55,-41.99,0,*50
1484827204.94,52789,4.13,74006.3,-4.15,-40.79,-41.17,0,*58
1484827206.22,52790,4.19,74010.3,-4.15,-41.03,-41.55,0,*5A
1484827207.49,52791,4.13,74006.0,-4.17,-40.59,-40.97,0,*58
1484827208.76,52792,4.13,74012.8,-4.17,-40.59,-41.23,0,*55
1484827210.04,52793,4.13,74004.0,-4.19,-42.05,-42.45,0,*52
1484827211.34,52794,4.19,74004.3,-4.19,-41.23,-41.67,0,*51
1484827212.58,52795,4.13,74018.3,-4.19,-40.53,-40.91,0,*5E
1484827213.82,52796,4.13,74008.0,-4.19,-40.47,-40.91,0,*58
1484827215.09,52797,4.13,74008.8,-4.19,-40.41,-40.53,0,*51
1484827216.36,52798,4.13,74014.0,-4.19,-40.09,-40.47,0,*57
1484827217.61,52799,4.13,74016.5,-4.17,-40.03,-40.41,0,*54
1484827218.87,52800,4.13,74010.3,-4.19,-39.47,-39.71,0,*56
1484827220.14,52801,4.13,74014.8,-4.17,-39.03,-39.23,0,*5E
1484827221.38,52802,4.13,74006.3,-4.17,-39.29,-39.65,0,*57
1484827222.62,52803,4.13,74012.0,-4.17,-39.85,-40.21,0,*5E
1484827223.9,52804,4.13,74018.5,-4.17,-39.79,-40.21,0,*5A
1484827225.15,52805,4.13,74016.0,-4.17,-39.79,-40.03,0,*5B
1484827226.45,52806,4.13,74012.3,-4.15,-39.79,-40.21,0,*5A
1484827227.7,52807,4.13,74016.8,-4.15,-40.21,-40.47,0,*58
1484827228.97,52808,4.13,74016.0,-4.15,-39.15,-39.47,0,*50
1484827230.26,52809,4.13,74018.3,-4.15,-39.41,-39.59,0,*5F
1484827231.54,52810,4.13,74022.8,-4.13,-39.71,-40.09,0,*59
1484827232.8,52811,4.13,74014.3,-4.15,-39.97,-40.35,0,*59
1484827234.04,52812,4.13,74012.3,-4.13,-40.29,-40.91,0,*59
1484827235.32,52813,4.13,74014.3,-4.13,-40.59,-40.97,0,*59
1484827236.58,52814,4.13,74012.3,-4.13,-39.97,-40.29,0,*57
1484827237.85,52815,4.13,74014.8,-4.15,-39.85,-40.21,0,*5B
1484827239.07,52816,4.13,74008.8,-4.13,-39.91,-40.15,0,*5C
1484827240.34,52817,4.13,74012.0,-4.13,-39.41,-39.59,0,*56
1484827241.58,52818,4.13,74014.0,-4.13,-39.53,-39.91,0,*5E
1484827242.85,52819,4.13,74016.8,-4.13,-39.97,-40.29,0,*5A
1484827244.15,52820,4.13,74018.0,-4.11,-39.59,-40.09,0,*52
1484827245.4,52821,4.13,74022.8,-4.11,-40.29,-40.73,0,*57
1484827246.67,52822,4.13,74018.0,-4.13,-40.29,-40.59,0,*5E
1484827247.94,52823,4.13,74018.8,-4.13,-39.71,-39.97,0,*50
1484827249.2,52824,4.13,74016.8,-4.09,-39.53,-39.59,0,*5E
1484827250.46,52825,4.13,74020.0,-4.09,-39.53,-39.97,0,*5D
1484827251.7,52826,4.13,74014.5,-4.09,-39.79,-40.15,0,*52
1484827252.97,52827,4.13,74018.3,-4.11,-40.09,-40.35,0,*51
1484827254.2,52828,4.13,74018.0,-4.09,-39.35,-39.59,0,*52
1484827255.45,52829,4.13,74018.0,-4.09,-39.79,-39.91,0,*5F
1484827256.67,52830,4.13,74016.8,-4.09,-39.91,-40.15,0,*53
1484827257.9,52831,4.13,74014.5,-4.11,-40.35,-40.73,0,*5B
1484827259.17,52832,4.13,74012.3,-4.09,-40.09,-40.29,0,*51
1484827260.42,52833,4.13,74018.0,-4.09,-39.53,-39.59,0,*58
1484827261.67,52834,4.13,74014.5,-4.09,-40.15,-40.41,0,*54
1484827262.92,52835,4.13,74008.8,-4.05,-39.91,-40.21,0,*5D
1484827264.17,52836,4.13,74010.0,-4.05,-39.85,-40.21,0,*5B
1484827265.41,52837,4.13,73998.5,-4.05,-39.53,-39.91,0,*54
1484827266.62,52838,4.13,74002.5,-4.05,-39.47,-39.85,0,*5B
1484827267.84,52839,4.13,74006.5,-4.05,-40.47,-40.91,0,*5F
1484827269.09,52840,4.13,74012.5,-4.05,-40.09,-40.35,0,*55
1484827270.34,52841,4.13,74010.0,-4.05,-40.15,-40.59,0,*53
1484827271.58,52842,4.13,74016.0,-4.05,-40.09,-40.35,0,*57
1484827272.82,52843,4.13,74016.3,-4.05,-40.29,-40.65,0,*51
1484827274.06,52844,4.13,74008.5,-4.03,-40.47,-40.97,0,*55
1484827275.27,52845,4.13,74006.8,-4.05,-41.11,-41.49,0,*52
1484827276.51,52846,4.13,74000.0,-4.09,-41.49,-41.81,0,*54
1484827277.72,52847,4.13,74006.3,-4.09,-42.37,-42.89,0,*54
1484827278.95,52848,4.13,74006.5,-4.11,-43.15,-43.41,0,*56
1484827280.22,52849,4.13,74006.3,-4.11,-42.69,-43.15,0,*5C
1484827281.5,52850,4.13,74006.8,-4.15,-42.05,-42.45,0,*5E
1484827282.75,52851,4.13,74002.5,-4.15,-41.99,-42.63,0,*5D
1484827284.04,52852,4.13,73998.8,-4.15,-42.57,-42.95,0,*56
1484827285.32,52853,4.13,73992.8,-4.19,-42.83,-43.29,0,*54
1484827286.55,52854,4.13,73994.8,-4.21,-42.89,-43.41,0,*5C
1484827287.77,52855,4.13,73996.8,-4.21,-42.89,-43.35,0,*5E
1484827289.0,52856,4.13,73996.3,-4.23,-43.15,-43.75,0,*5F
1484827290.23,52857,4.13,73996.8,-4.25,-43.01,-43.41,0,*5A
1484827291.49,52858,4.13,73998.8,-4.27,-42.83,-43.41,0,*5C
1484827292.73,52859,4.13,73998.3,-4.27,-42.37,-43.01,0,*56
1484827293.98,52860,4.13,74000.8,-4.29,-41.23,-41.87,0,*58
1484827295.22,52861,4.13,74008.3,-4.33,-41.99,-42.31,0,*5D
1484827296.44,52862,4.13,74008.0,-4.33,-41.03,-41.61,0,*5B
1484827297.65,52863,4.13,74008.3,-4.29,-41.11,-41.49,0,*58
1484827298.87,52864,4.13,74018.3,-4.29,-40.91,-41.41,0,*5E
1484827300.11,52865,4.13,74014.0,-4.33,-40.59,-40.73,0,*50
1484827301.36,52866,4.13,74014.3,-4.29,-39.91,-40.41,0,*53
1484827302.63,52867,4.13,74014.8,-4.29,-40.85,-41.23,0,*5C
1484827303.87,52868,4.13,74018.0,-4.33,-40.09,-40.47,0,*5F
1484827305.11,52869,4.13,74012.8,-4.29,-40.29,-40.47,0,*57
1484827306.35,52870,4.13,74008.5,-4.29,-39.23,-39.47,0,*55
1484827307.62,52871,4.13,74014.0,-4.27,-40.59,-41.03,0,*56
1484827308.88,52872,4.13,73996.3,-4.27,-42.05,-42.63,0,*5B
1484827310.14,52873,4.13,73996.8,-4.27,-42.57,-43.01,0,*58
1484827311.38,52874,4.13,73992.8,-4.29,-42.63,-43.21,0,*54
1484827312.65,52875,4.13,73996.3,-4.33,-42.69,-43.29,0,*5C
1484827313.88,52876,4.13,73998.0,-4.33,-41.61,-42.05,0,*5B
1484827315.14,52877,4.13,74010.3,-4.35,-41.49,-41.93,0,*5A
1484827316.39,52878,4.13,74020.8,-4.37,-42.19,-42.57,0,*5A
1484827317.59,52879,4.13,74020.8,-4.37,-40.73,-41.17,0,*52
1484827318.82,52880,4.13,74016.5,-4.37,-41.11,-41.55,0,*57
1484827320.02,52881,4.13,74012.8,-4.37,-40.47,-40.73,0,*51
1484827321.24,52882,4.13,74012.3,-4.37,-40.09,-40.35,0,*5A
1484827322.51,52883,4.13,74006.3,-4.35,-40.09,-40.65,0,*5C
1484827323.78,52884,4.13,74008.8,-4.35,-41.35,-41.87,0,*58
1484827325.04,52885,4.13,74008.5,-4.35,-41.17,-41.67,0,*57
1484827326.29,52886,4.13,74014.8,-4.35,-40.91,-41.29,0,*51
1484827327.53,52887,4.13,74010.8,-4.37,-41.55,-41.93,0,*5A
1484827328.73,52888,4.13,74014.5,-4.37,-41.11,-41.73,0,*5B
1484827329.94,52889,4.13,74010.8,-4.37,-40.15,-40.47,0,*59
1484827331.2,52890,4.13,74018.3,-4.35,-40.53,-40.97,0,*5C
1484827332.43,52891,4.13,74012.3,-4.37,-39.97,-40.35,0,*51
1484827333.63,52892,4.13,74012.3,-4.37,-39.91,-40.35,0,*54
1484827334.88,52893,4.13,74012.8,-4.35,-40.15,-40.53,0,*55
1484827336.15,52894,4.13,74018.0,-4.35,-39.79,-40.15,0,*54
1484827337.39,52895,4.13,74014.3,-4.35,-40.35,-40.65,0,*54
1484827338.63,52896,4.13,74016.3,-4.33,-39.85,-40.21,0,*54
1484827339.84,52897,4.13,74014.8,-4.33,-40.91,-41.49,0,*51
1484827341.09,52898,4.13,74016.8,-4.33,-40.85,-41.11,0,*56
1484827342.38,52899,4.13,74014.5,-4.35,-39.79,-39.97,0,*5D
1484827343.65,52900,4.13,74012.0,-4.35,-39.91,-40.29,0,*51
1484827344.92,52901,4.13,74016.5,-4.33,-39.71,-40.09,0,*5A
1484827346.16,52902,4.13,74010.3,-4.29,-39.23,-39.47,0,*51
1484827347.39,52903,4.13,74014.8,-4.29,-39.23,-39.47,0,*50
1484827348.66,52904,4.13,74018.8,-4.27,-39.47,-39.79,0,*56
1484827349.9,52905,4.13,74016.5,-4.27,-39.35,-39.65,0,*5F
1484827351.14,52906,4.13,74018.5,-4.27,-39.65,-39.85,0,*57
1484827352.42,52907,4.13,74018.3,-4.25,-39.59,-39.79,0,*58
1484827353.69,52908,4.13,74010.0,-4.27,-39.79,-40.03,0,*54
1484827354.95,52909,4.13,74016.0,-4.27,-39.23,-39.47,0,*54
1484827356.2,52910,4.13,74016.3,-4.25,-39.23,-39.41,0,*58
1484827357.43,52911,4.13,74014.8,-4.25,-39.03,-39.35,0,*58
1484827358.7,52912,4.13,74016.0,-4.21,-39.29,-39.59,0,*5D
1484827359.95,52913,4.13,74018.0,-4.21,-39.59,-39.91,0,*5F
1484827361.21,52914,4.13,74020.0,-4.23,-39.97,-40.35,0,*58
1484827362.48,52915,4.13,74020.5,-4.21,-39.53,-39.79,0,*55
1484827363.72,52916,4.13,74018.0,-4.21,-39.35,-39.59,0,*54
1484827364.92,52917,4.13,74016.5,-4.21,-38.97,-39.35,0,*56
1484827366.21,52918,4.13,74020.0,-4.19,-39.53,-39.71,0,*5B
1484827367.49,52919,4.13,74016.5,-4.19,-39.29,-39.53,0,*57
1484827368.74,52920,4.13,74018.3,-4.17,-39.41,-39.65,0,*58
1484827370.04,52921,4.13,74012.5,-4.19,-40.41,-40.85,0,*59
1484827371.29,52922,4.13,74018.8,-4.17,-39.79,-40.03,0,*5F
1484827372.56,52923,4.13,74018.8,-4.17,-39.59,-39.79,0,*5F
1484827373.78,52924,4.13,74016.5,-4.17,-39.85,-40.15,0,*5D
1484827375.04,52925,4.13,74012.5,-4.19,-39.53,-39.85,0,*5E
1484827376.29,52926,4.13,74016.3,-4.17,-39.59,-40.03,0,*59
1484827377.59,52927,4.13,74012.5,-4.15,-39.59,-39.97,0,*59
1484827378.83,52928,4.13,74014.3,-4.15,-39.85,-40.35,0,*51
1484827380.12,52929,4.13,74012.0,-4.15,-40.85,-41.35,0,*5F
1484827381.41,52930,4.13,74016.8,-4.15,-40.21,-40.41,0,*5B
1484827382.66,52931,4.13,74020.8,-4.15,-40.15,-40.35,0,*5E
1484827383.93,52932,4.13,74018.3,-4.15,-39.85,-40.21,0,*5F
1484827385.22,52933,4.13,74014.8,-4.15,-40.97,-41.55,0,*51
1484827386.51,52934,4.13,74016.8,-4.15,-39.97,-40.21,0,*5A
1484827387.74,52935,4.13,74014.8,-4.15,-40.65,-41.17,0,*5C
1484827388.96,52936,4.13,74010.3,-4.17,-39.85,-40.35,0,*5C
1484827390.21,52937,4.13,74016.5,-4.17,-39.41,-39.65,0,*5E
1484827391.49,52938,4.13,74014.0,-4.15,-40.21,-40.79,0,*58
1484827392.77,52939,4.13,74010.0,-4.15,-40.15,-40.41,0,*55
1484827394.0,52940,4.13,74008.5,-4.13,-40.79,-41.29,0,*58
1484827395.3,52941,4.13,74012.5,-4.15,-41.35,-41.81,0,*54
1484827396.56,52942,4.13,74006.3,-4.17,-40.85,-41.23,0,*57
1484827397.82,52943,4.13,74010.5,-4.17,-40.15,-40.41,0,*5A
1484827399.11,52944,4.13,74008.5,-4.19,-41.93,-42.31,0,*59
1484827400.36,52945,4.13,74008.0,-4.17,-40.85,-41.41,0,*54
1484827401.59,52946,4.13,74010.5,-4.17,-41.41,-41.81,0,*52
1484827402.84,52947,4.13,74008.8,-4.19,-41.03,-41.61,0,*55
1484827404.08,52948,4.13,74010.8,-4.19,-41.87,-42.51,0,*56
1484827405.32,52949,4.13,74010.5,-4.21,-41.93,-42.51,0,*59
1484827406.59,52950,4.13,74014.8,-4.23,-41.29,-41.67,0,*54
1484827407.81,52951,4.13,74004.8,-4.21,-40.91,-41.29,0,*5F
1484827409.07,52952,4.13,74002.3,-4.23,-40.79,-41.11,0,*53
1484827410.31,52953,4.13,74008.3,-4.21,-41.93,-42.37,0,*52
1484827411.6,52954,4.13,74014.8,-4.23,-42.57,-43.09,0,*50
1484827412.84,52955,4.13,74018.5,-4.25,-43.61,-44.21,0,*5E
1484827414.11,52956,4.13,74010.0,-4.29,-42.45,-43.09,0,*5B
1484827415.33,52957,4.13,74022.3,-4.29,-41.49,-41.87,0,*51
1484827416.57,52958,4.13,74018.3,-4.33,-41.61,-42.05,0,*56
1484827417.78,52959,4.13,74008.0,-4.29,-41.49,-42.25,0,*54
1484827419.02,52960,4.13,74012.5,-4.33,-40.85,-41.29,0,*5B
1484827420.26,52961,4.13,74014.5,-4.29,-40.21,-40.65,0,*56
1484827421.5,52962,4.13,74014.3,-4.29,-40.73,-41.23,0,*51
1484827422.71,52963,4.13,74014.5,-4.29,-41.11,-41.61,0,*53
1484827423.92,52964,4.13,74012.8,-4.29,-40.73,-41.29,0,*5D
1484827425.17,52965,4.13,74010.8,-4.29,-40.85,-41.41,0,*5B
1484827426.38,52966,4.13,74014.3,-4.29,-40.91,-41.49,0,*55
1484827427.64,52967,4.13,74018.5,-4.29,-41.03,-41.67,0,*52
1484827428.89,52968,4.13,74012.8,-4.33,-40.41,-40.91,0,*59
1484827430.13,52969,4.13,74014.8,-4.33,-41.67,-42.25,0,*50
1484827431.34,52970,4.13,74010.8,-4.33,-41.87,-42.25,0,*56
1484827432.56,52971,4.13,74008.5,-4.33,-41.41,-41.87,0,*56
1484827433.8,52972,4.13,74008.8,-4.35,-41.49,-41.73,0,*50
1484827435.03,52973,4.13,74010.8,-4.35,-40.73,-41.17,0,*5B
1484827436.3,52974,4.13,74012.5,-4.35,-41.11,-41.67,0,*5E
1484827437.53,52975,4.13,74010.3,-4.37,-40.97,-41.29,0,*58
1484827438.76,52976,4.13,74004.3,-4.35,-41.29,-41.73,0,*52
1484827439.98,52977,4.13,74004.8,-4.37,-40.65,-40.97,0,*53
1484827441.21,52978,4.13,74006.0,-4.37,-40.53,-40.97,0,*59
1484827442.47,52979,4.13,74002.8,-4.35,-39.97,-40.35,0,*54
1484827443.73,52980,4.13,74006.5,-4.35,-39.97,-40.15,0,*50
1484827445.0,52981,4.13,74006.3,-4.35,-39.91,-40.29,0,*58
1484827446.26,52982,4.13,74002.3,-4.35,-40.29,-40.65,0,*5E
1484827447.52,52983,4.13,74004.8,-4.35,-39.97,-40.15,0,*53
1484827448.76,52984,4.13,74008.0,-4.33,-40.03,-40.41,0,*50
1484827449.99,52985,4.13,74006.0,-4.29,-40.21,-40.65,0,*5C
1484827451.26,52986,4.13,74014.3,-4.33,-40.85,-41.23,0,*59
1484827452.47,52987,4.13,74012.0,-4.33,-40.73,-41.11,0,*50
1484827453.71,52988,4.13,74010.5,-4.33,-40.85,-41.29,0,*5D
1484827454.96,52989,4.13,74010.0,-4.29,-42.25,-42.69,0,*58
1484827456.2,52990,4.13,74012.5,-4.33,-41.23,-41.49,0,*5F
1484827457.42,52991,4.13,74012.3,-4.37,-40.29,-40.65,0,*5E
1484827458.68,52992,4.13,74014.0,-4.35,-39.97,-40.47,0,*54
1484827459.89,52993,4.13,74014.5,-4.37,-40.53,-40.79,0,*5C
1484827461.15,52994,4.13,74008.5,-4.35,-40.29,-40.47,0,*59
1484827462.4,52995,4.13,74010.8,-4.35,-40.65,-40.79,0,*5D
1484827463.7,52996,4.13,74016.8,-4.35,-39.59,-39.97,0,*51
1484827464.98,52997,4.13,74014.8,-4.35,-39.53,-39.97,0,*5A
1484827466.2,52998,4.13,74014.8,-4.33,-39.65,-39.91,0,*50
1484827467.45,52999,4.13,74014.8,-4.29,-39.85,-40.09,0,*5B
1484827468.7,53000,4.13,74006.5,-4.29,-39.91,-40.29,0,*54
1484827469.97,53001,4.13,74016.5,-4.29,-39.71,-40.09,0,*59
1484827471.22,53002,4.13,74012.8,-4.29,-39.85,-40.29,0,*53
1484827472.46,53003,4.13,74008.3,-4.29,-40.03,-40.29,0,*52
1484827473.73,53004,4.13,74008.8,-4.27,-40.03,-40.41,0,*55
1484827475.0,53005,4.13,74012.0,-4.27,-39.79,-40.15,0,*56
1484827476.27,53006,4.13,74012.3,-4.27,-39.97,-40.53,0,*57
1484827477.48,53007,4.13,74018.0,-4.25,-39.85,-40.03,0,*52
1484827478.75,53008,4.13,74012.5,-4.27,-39.79,-40.03,0,*5C
1484827480.0,53009,4.13,74012.5,-4.25,-39.59,-39.85,0,*5D
1484827481.24,53010,4.13,74010.8,-4.25,-40.65,-40.97,0,*59
1484827482.5,53011,4.13,74014.5,-4.25,-40.85,-41.35,0,*5F
1484827483.76,53012,4.13,74010.5,-4.25,-40.79,-41.23,0,*58
1484827485.03,53013,4.13,74010.5,-4.27,-40.03,-40.41,0,*53
1484827486.3,53014,4.13,74010.8,-4.27,-40.03,-40.41,0,*54
1484827487.54,53015,4.13,74014.3,-4.25,-40.59,-41.03,0,*5F
1484827488.78,53016,4.13,74012.5,-4.27,-40.35,-40.65,0,*55
1484827490.04,53017,4.13,74012.0,-4.25,-39.23,-39.41,0,*57
1484827491.26,53018,4.13,74012.8,-4.25,-39.65,-40.15,0,*55
1484827492.49,53019,4.13,74018.8,-4.25,-40.59,-40.65,0,*52
1484827493.74,53020,4.13,74016.5,-4.25,-39.59,-39.85,0,*56
1484827494.98,53021,4.13,74016.0,-4.25,-39.47,-39.79,0,*5B
1484827496.24,53022,4.13,74012.0,-4.23,-39.15,-39.35,0,*51
1484827497.53,53023,4.13,74012.3,-4.23,-39.71,-39.97,0,*5A
1484827498.83,53024,4.13,74016.8,-4.23,-39.71,-40.09,0,*54
1484827500.1,53025,4.13,74014.5,-4.21,-39.41,-39.71,0,*55
1484827501.35,53026,4.06,74004.3,-4.21,-39.59,-39.91,0,*51
1484827502.6,53027,4.13,74004.3,-4.21,-39.71,-39.91,0,*5A
1484827503.84,53028,4.13,74018.0,-4.21,-39.97,-40.35,0,*5D
1484827505.11,53029,4.13,74014.8,-4.21,-39.79,-40.09,0,*53
1484827506.39,53030,4.13,74010.0,-4.21,-39.59,-39.97,0,*50
1484827507.63,53031,4.13,74006.0,-4.21,-39.35,-39.53,0,*53
1484827508.86,53032,4.13,74010.5,-4.19,-40.47,-40.73,0,*5C
1484827510.13,53033,4.13,74022.3,-4.19,-39.91,-40.29,0,*57
1484827511.4,53034,4.13,74012.3,-4.19,-40.47,-40.85,0,*53
1484827512.7,53035,4.13,74014.3,-4.19,-40.09,-40.41,0,*50
1484827513.94,53036,4.13,74020.5,-4.19,-40.53,-40.91,0,*51
1484827515.2,53037,4.13,74008.8,-4.19,-40.73,-41.23,0,*5A
1484827516.46,53038,4.13,74012.3,-4.23,-40.79,-41.29,0,*5C
1484827517.7,53039,4.13,74018.5,-4.23,-40.53,-40.91,0,*57
1484827518.94,53040,4.13,74014.0,-4.21,-40.35,-40.59,0,*5F
1484827520.21,53041,4.13,74018.0,-4.21,-39.53,-39.79,0,*5C
1484827521.45,53042,4.13,74018.8,-4.21,-40.09,-40.35,0,*58
1484827522.72,53043,4.06,74012.3,-4.21,-40.09,-40.29,0,*54
1484827524.0,53044,4.06,74008.0,-4.21,-39.71,-40.09,0,*50
1484827525.22,53045,4.13,74006.3,-4.21,-40.15,-40.47,0,*57
1484827526.46,53046,4.13,74008.3,-4.19,-40.47,-40.73,0,*5F
1484827527.72,53047,4.13,74004.0,-4.19,-39.53,-39.85,0,*52
1484827528.99,53048,4.06,73994.8,-4.19,-39.85,-40.41,0,*50
1484827530.26,53049,4.13,73996.8,-4.19,-39.85,-40.09,0,*5D
1484827531.52,53050,4.13,73992.8,-4.19,-40.21,-40.53,0,*5A
1484827532.76,53051,4.06,73996.5,-4.19,-40.73,-41.11,0,*5B
1484827534.03,53052,4.13,74002.8,-4.19,-42.13,-42.69,0,*50
1484827535.3,53053,4.13,73988.8,-4.21,-42.57,-43.09,0,*5D
1484827536.53,53054,4.06,73998.3,-4.23,-42.37,-42.89,0,*57
1484827537.78,53055,4.13,74000.5,-4.25,-42.95,-43.49,0,*55
1484827539.07,53056,4.13,74004.0,-4.27,-42.83,-43.29,0,*55
1484827540.33,53057,4.13,74000.5,-4.27,-41.99,-42.45,0,*57
1484827541.57,53058,4.13,74000.3,-4.29,-41.61,-42.05,0,*55
1484827542.81,53059,4.13,73996.0,-4.29,-42.63,-43.21,0,*52
1484827544.07,53060,4.06,74000.3,-4.33,-43.21,-43.67,0,*56
1484827545.31,53061,4.13,73992.5,-4.33,-43.67,-44.27,0,*56
1484827546.55,53062,4.06,73996.3,-4.35,-43.15,-43.41,0,*51
1484827547.8,53063,4.13,74004.8,-4.39,-44.41,-45.07,0,*5E
1484827549.05,53064,4.06,74000.3,-4.41,-42.57,-42.95,0,*5B
1484827550.31,53065,4.13,74002.8,-4.41,-41.81,-42.19,0,*56
1484827551.51,53066,4.06,74002.5,-4.45,-41.49,-41.99,0,*5E
1484827552.74,53067,4.13,74006.0,-4.43,-41.03,-41.41,0,*52
1484827553.97,53068,4.13,74010.3,-4.43,-41.41,-41.87,0,*51
1484827555.22,53069,4.13,74014.5,-4.45,-42.05,-42.57,0,*5B
1484827556.48,53070,4.13,74008.5,-4.45,-42.69,-43.29,0,*51
1484827557.73,53071,4.13,74004.8,-4.45,-42.31,-42.69,0,*58
1484827558.96,53072,4.13,74008.5,-4.45,-42.05,-42.51,0,*57
1484827560.19,53073,4.13,74006.5,-4.47,-42.89,-43.35,0,*53
1484827561.43,53074,4.06,74006.8,-4.49,-42.19,-42.75,0,*56
1484827562.66,53075,4.06,74004.5,-4.49,-42.31,-42.63,0,*5A
1484827563.91,53076,4.13,74016.8,-4.47,-41.67,-42.13,0,*50
1484827565.14,53077,4.13,74022.5,-4.49,-42.13,-42.57,0,*5F
1484827566.39,53078,4.13,74024.8,-4.49,-41.35,-41.81,0,*5F
1484827567.65,53079,4.13,74018.5,-4.51,-41.35,-41.73,0,*5A
1484827568.91,53080,4.13,74016.5,-4.51,-40.59,-40.91,0,*5A
1484827570.16,53081,4.13,74012.5,-4.51,-41.41,-41.81,0,*53
1484827571.41,53082,4.13,74012.8,-4.51,-41.55,-41.99,0,*5C
1484827572.67,53083,4.13,74012.3,-4.51,-40.15,-40.41,0,*5C
1484827573.93,53084,4.13,74010.8,-4.55,-40.47,-40.85,0,*50
1484827575.19,53085,4.13,74012.3,-4.51,-40.41,-40.91,0,*56
1484827576.45,53086,4.13,74014.3,-4.51,-40.91,-41.23,0,*50
1484827577.7,53087,4.13,74016.5,-4.51,-40.79,-41.03,0,*55
1484827578.93,53088,4.13,74008.8,-4.51,-40.53,-40.91,0,*58
1484827580.16,53089,4.06,74014.0,-4.47,-40.35,-40.65,0,*55
1484827581.41,53090,4.06,74012.5,-4.49,-40.59,-40.97,0,*54
1484827582.67,53091,4.13,74014.5,-4.47,-40.35,-40.85,0,*52
1484827583.91,53092,4.13,74012.0,-4.47,-40.29,-40.65,0,*52
1484827585.16,53093,4.06,74014.5,-4.47,-40.09,-40.65,0,*51
1484827586.41,53094,4.13,74018.3,-4.47,-39.97,-40.35,0,*5A
1484827587.63,53095,4.13,74018.3,-4.47,-40.35,-40.73,0,*5F
1484827588.92,53096,4.13,74014.0,-4.47,-39.79,-40.09,0,*57
1484827590.15,53097,4.06,74012.8,-4.47,-39.91,-40.35,0,*5F
1484827591.44,53098,4.13,74016.5,-4.43,-39.59,-39.71,0,*5E
1484827592.64,53099,4.06,74004.5,-4.45,-39.85,-40.03,0,*53
1484827593.9,53100,4.06,74000.5,-4.43,-39.85,-40.09,0,*5E
1484827595.16,53101,4.13,74000.0,-4.43,-40.47,-40.85,0,*5B
1484827596.39,53102,4.13,74004.8,-4.43,-40.91,-41.11,0,*5F
1484827597.65,53103,4.13,73996.5,-4.43,-39.91,-40.21,0,*52
1484827598.94,53104,4.06,74002.5,-4.43,-41.23,-41.67,0,*50
1484827600.16,53105,4.06,74016.8,-4.43,-41.29,-41.87,0,*55
1484827601.36,53106,4.06,74010.3,-4.45,-41.11,-41.49,0,*59
1484827602.62,53107,4.06,74012.8,-4.43,-40.41,-40.65,0,*55
1484827603.87,53108,4.06,74012.0,-4.43,-39.85,-40.21,0,*5C
1484827605.13,53109,4.06,74008.5,-4.43,-39.71,-40.03,0,*56
1484827606.38,53110,4.06,74014.3,-4.43,-39.29,-39.65,0,*5D
1484827607.61,53111,4.06,74010.3,-4.41,-40.03,-40.21,0,*56
1484827608.84,53112,4.13,74014.8,-4.41,-40.03,-40.21,0,*55
1484827610.1,53113,4.06,74014.0,-4.41,-39.59,-39.79,0,*56
1484827611.33,53114,4.13,74014.8,-4.39,-39.85,-40.15,0,*5B
1484827612.58,53115,4.06,74012.3,-4.39,-40.35,-40.79,0,*55
1484827613.83,53116,4.13,74018.0,-4.41,-40.21,-40.41,0,*57
1484827615.06,53117,4.06,74016.5,-4.39,-39.85,-40.15,0,*58
1484827616.29,53118,4.06,74010.3,-4.39,-39.85,-40.15,0,*57
1484827617.54,53119,4.06,74018.0,-4.39,-40.97,-41.41,0,*5B
1484827618.77,53120,4.06,74012.3,-4.39,-41.03,-41.41,0,*5D
1484827620.03,53121,4.13,74012.8,-4.39,-40.15,-40.41,0,*5B
1484827621.27,53122,4.13,74020.8,-4.39,-40.21,-40.53,0,*5C
1484827622.53,53123,4.06,74012.3,-4.39,-40.03,-40.41,0,*5E
1484827623.75,53124,4.06,74008.8,-4.41,-40.21,-40.53,0,*55
1484827625.03,53125,4.13,74018.8,-4.39,-39.79,-39.97,0,*5E
1484827626.32,53126,4.06,74018.0,-4.39,-39.79,-39.97,0,*5D
1484827627.55,53127,4.06,74018.5,-4.39,-39.85,-40.15,0,*5B
1484827628.77,53128,4.13,74012.8,-4.37,-39.53,-39.91,0,*53
1484827630.02,53129,4.06,74012.5,-4.37,-39.97,-40.29,0,*57
1484827631.23,53130,4.13,74012.3,-4.37,-40.15,-40.53,0,*56
1484827632.47,53131,4.13,74014.8,-4.37,-39.79,-40.15,0,*51
1484827633.7,53132,4.06,74012.5,-4.37,-39.59,-39.91,0,*52
1484827635.0,53133,4.13,74018.0,-4.35,-39.59,-39.79,0,*57
1484827636.24,53134,4.06,74012.5,-4.33,-39.53,-39.65,0,*51
1484827637.46,53135,4.06,74010.8,-4.29,-39.65,-40.03,0,*50
1484827638.72,53136,4.13,74014.3,-4.35,-39.97,-40.15,0,*54
1484827639.96,53137,4.13,74012.0,-4.33,-39.41,-39.65,0,*51
1484827641.18,53138,4.13,74016.3,-4.33,-39.65,-39.91,0,*53
1484827642.43,53139,4.13,74014.0,-4.33,-39.85,-40.21,0,*59
1484827643.67,53140,4.06,74014.0,-4.29,-39.41,-39.65,0,*5A
1484827644.94,53141,4.06,74008.8,-4.29,-39.71,-40.29,0,*5E
1484827646.21,53142,4.13,74008.3,-4.29,-39.41,-39.53,0,*5D
1484827647.48,53143,4.13,74010.5,-4.29,-39.71,-40.21,0,*54
1484827648.75,53144,4.06,74008.3,-4.27,-39.41,-39.65,0,*50
1484827650.01,53145,4.13,74016.5,-4.27,-39.97,-40.15,0,*53
1484827651.26,53146,4.06,74010.5,-4.27,-39.85,-40.15,0,*53
1484827652.53,53147,4.06,74014.0,-4.27,-39.59,-39.65,0,*5A
1484827653.79,53148,4.06,74010.0,-4.27,-39.97,-40.35,0,*5C
1484827655.03,53149,4.13,74014.8,-4.25,-39.23,-39.47,0,*5B
1484827656.26,53150,4.13,74018.3,-4.25,-39.15,-39.47,0,*56
1484827657.52,53151,4.13,74016.0,-4.25,-39.03,-39.41,0,*56
1484827658.79,53152,4.13,74012.3,-4.23,-39.71,-39.91,0,*5B
1484827660.08,53153,4.06,74012.5,-4.23,-39.41,-39.79,0,*5F
1484827661.35,53154,4.06,74018.5,-4.23,-39.79,-40.15,0,*57
1484827662.65,53155,4.13,74016.0,-4.23,-39.71,-39.97,0,*5A
1484827663.94,53156,4.06,74012.5,-4.23,-39.41,-39.71,0,*52
1484827665.19,53157,4.13,74018.5,-4.23,-39.97,-40.35,0,*56
1484827666.49,53158,4.13,74020.8,-4.23,-39.59,-39.79,0,*5D
1484827667.77,53159,4.06,74012.3,-4.23,-39.79,-40.15,0,*5A
1484827669.04,53160,4.06,74008.5,-4.21,-39.59,-39.97,0,*54
1484827670.32,53161,4.06,74014.5,-4.23,-39.41,-39.53,0,*56
1484827671.6,53162,4.13,74018.5,-4.21,-39.59,-39.71,0,*5E
1484827672.84,53163,4.06,74014.0,-4.21,-40.09,-40.35,0,*5A
1484827674.12,53164,4.06,74004.8,-4.21,-39.71,-40.09,0,*53
1484827675.4,53165,4.06,74008.8,-4.21,-39.59,-40.09,0,*58
1484827676.65,53166,4.06,74014.8,-4.19,-40.21,-40.47,0,*5B
1484827677.91,53167,4.13,74012.5,-4.19,-39.35,-39.53,0,*5A
1484827679.16,53168,4.06,74010.8,-4.19,-39.47,-39.65,0,*55
1484827680.44,53169,4.13,74018.3,-4.19,-40.21,-40.41,0,*52
1484827681.68,53170,4.06,74016.8,-4.19,-39.09,-39.35,0,*53
1484827682.95,53171,4.06,74012.3,-4.17,-39.15,-39.29,0,*5C
1484827684.22,53172,4.13,74018.0,-4.17,-39.97,-40.21,0,*53
1484827685.49,53173,4.06,74014.8,-4.17,-39.79,-39.97,0,*51
1484827686.73,53174,4.13,74012.3,-4.17,-39.97,-40.35,0,*50
1484827687.95,53175,4.13,74014.0,-4.17,-39.65,-39.85,0,*59
1484827689.21,53176,4.06,74010.5,-4.17,-40.21,-40.41,0,*52
1484827690.46,53177,4.06,74012.3,-4.17,-39.59,-39.85,0,*54
1484827691.7,53178,4.06,74008.5,-4.17,-39.65,-39.79,0,*57
1484827692.97,53179,4.06,74020.8,-4.17,-39.41,-39.59,0,*52
1484827694.24,53180,4.06,74010.5,-4.17,-39.97,-40.21,0,*5E
1484827695.46,53181,4.13,74014.0,-4.17,-40.15,-40.47,0,*5B
1484827696.73,53182,4.06,74014.3,-4.17,-40.59,-40.85,0,*5E
1484827697.97,53183,4.06,74018.5,-4.17,-40.21,-40.65,0,*5E
1484827699.24,53184,4.13,74014.3,-4.17,-39.15,-39.29,0,*56
1484827700.51,53185,4.06,74012.8,-4.17,-39.59,-39.97,0,*5A
1484827701.76,53186,4.06,74010.0,-4.17,-39.41,-39.65,0,*5D
1484827703.03,53187,4.06,74012.8,-4.15,-39.59,-39.85,0,*59
1484827704.27,53188,4.13,74018.0,-4.15,-39.65,-40.03,0,*59
1484827705.56,53189,4.06,74014.5,-4.15,-39.29,-39.59,0,*51
1484827706.83,53190,4.06,74012.0,-4.15,-38.85,-39.15,0,*56
1484827708.07,53191,4.06,74010.8,-4.13,-39.35,-39.59,0,*53
1484827709.31,53192,4.13,74016.8,-4.15,-40.35,-40.65,0,*59